TimeEST,TemperatureF,Dew PointF,Humidity,Sea Level PressureIn,VisibilityMPH,Wind Direction,Wind SpeedMPH,Gust SpeedMPH,PrecipitationIn,Events,Conditions,WindDirDegrees,DateUTC
12:14 AM,56.3,44.6,65,29.65,10.0,SW,13.8,24.2,N/A,,Overcast,220,2012-11-23 05:14:00
12:35 AM,55.9,44.6,66,29.64,10.0,SW,16.1,23.0,N/A,,Overcast,230,2012-11-23 05:35:00
12:54 AM,55.8,44.8,67,29.63,10.0,SW,15.0,21.9,N/A,,Overcast,220,2012-11-23 05:54:00
1:14 AM,55.6,45.1,68,29.62,10.0,SW,18.4,26.5,N/A,,Overcast,230,2012-11-23 06:14:00
1:35 AM,55.2,45.5,70,29.62,10.0,WSW,18.4,25.3,N/A,,Overcast,240,2012-11-23 06:35:00
1:54 AM,54.9,45.5,71,29.61,10.0,WSW,11.5,21.9,N/A,,Overcast,240,2012-11-23 06:54:00
2:14 AM,54.5,45.0,70,29.61,10.0,WSW,9.2,23.0,N/A,,Overcast,250,2012-11-23 07:14:00
2:35 AM,52.9,42.4,68,29.63,10.0,West,18.4,25.3,N/A,,Overcast,280,2012-11-23 07:35:00
2:54 AM,47.7,35.1,62,29.66,10.0,West,25.3,34.5,N/A,,Overcast,280,2012-11-23 07:54:00
3:14 AM,45.5,34.0,64,29.67,10.0,West,19.6,28.8,N/A,,Overcast,280,2012-11-23 08:14:00
3:35 AM,44.6,34.3,67,29.67,10.0,West,16.1,26.5,N/A,,Overcast,280,2012-11-23 08:35:00
3:54 AM,44.2,34.0,67,29.66,10.0,West,20.7,28.8,N/A,,Overcast,280,2012-11-23 08:54:00
4:14 AM,43.9,33.8,68,29.67,10.0,West,11.5,21.9,N/A,,Overcast,270,2012-11-23 09:14:00
4:35 AM,43.3,33.1,67,29.67,10.0,West,17.3,32.2,N/A,,Overcast,280,2012-11-23 09:35:00
4:54 AM,42.6,32.0,66,29.68,10.0,West,13.8,24.2,N/A,,Overcast,280,2012-11-23 09:54:00
5:14 AM,41.5,31.3,67,29.68,10.0,West,16.1,23.0,N/A,,Overcast,270,2012-11-23 10:14:00
5:35 AM,40.3,29.3,65,29.69,10.0,West,17.3,25.3,N/A,,Overcast,270,2012-11-23 10:35:00
5:54 AM,39.6,29.5,67,29.69,10.0,West,19.6,29.9,N/A,,Overcast,260,2012-11-23 10:54:00
6:14 AM,38.3,26.8,63,29.69,10.0,West,21.9,28.8,N/A,,Overcast,260,2012-11-23 11:14:00
6:35 AM,37.8,25.5,61,29.70,10.0,West,19.6,34.5,N/A,,Overcast,260,2012-11-23 11:35:00
6:54 AM,37.4,24.8,60,29.71,10.0,West,16.1,32.2,N/A,,Overcast,280,2012-11-23 11:54:00
7:15 AM,37.4,25.0,61,29.70,10.0,West,16.1,26.5,N/A,,Overcast,270,2012-11-23 12:15:00
7:34 AM,37.4,24.6,60,29.71,10.0,West,15.0,25.3,N/A,,Overcast,260,2012-11-23 12:34:00
7:54 AM,37.4,24.8,60,29.71,10.0,West,9.2,16.1,N/A,,Overcast,270,2012-11-23 12:54:00
8:15 AM,36.7,24.3,61,29.71,10.0,West,18.4,34.5,N/A,,Overcast,280,2012-11-23 13:15:00
8:34 AM,36.0,24.1,62,29.71,10.0,WNW,19.6,33.4,N/A,,Overcast,290,2012-11-23 13:34:00
8:54 AM,35.6,23.9,62,29.72,10.0,West,16.1,28.8,N/A,,Overcast,270,2012-11-23 13:54:00
9:15 AM,34.7,23.7,64,29.73,10.0,West,21.9,32.2,N/A,,Overcast,280,2012-11-23 14:15:00
9:34 AM,34.0,22.3,62,29.73,10.0,West,21.9,33.4,N/A,,Overcast,280,2012-11-23 14:34:00
9:54 AM,33.6,22.1,63,29.73,10.0,West,20.7,27.6,N/A,,Overcast,280,2012-11-23 14:54:00
10:15 AM,33.1,21.7,63,29.74,10.0,WNW,18.4,26.5,N/A,,Overcast,290,2012-11-23 15:15:00
10:34 AM,32.5,21.6,64,29.74,10.0,West,19.6,27.6,N/A,,Overcast,270,2012-11-23 15:34:00
10:54 AM,32.2,22.1,66,29.75,10.0,West,18.4,27.6,N/A,,Overcast,280,2012-11-23 15:54:00
11:15 AM,32.0,23.5,71,29.75,10.0,West,16.1,24.2,N/A,,Overcast,280,2012-11-23 16:15:00
11:34 AM,32.0,24.4,74,29.75,5.0,West,13.8,23.0,N/A,Snow,Light Snow,280,2012-11-23 16:34:00
11:54 AM,32.0,24.8,75,29.75,7.0,West,17.3,24.2,N/A,Snow,Light Snow,280,2012-11-23 16:54:00
12:15 PM,32.0,26.2,79,29.75,1.5,West,16.1,23.0,N/A,Snow,Light Snow,280,2012-11-23 17:15:00
12:34 PM,32.5,26.4,78,29.75,3.0,WNW,19.6,27.6,N/A,Snow,Light Snow,290,2012-11-23 17:34:00
12:54 PM,32.5,26.6,79,29.75,7.0,WNW,17.3,25.3,N/A,Snow,Light Snow,290,2012-11-23 17:54:00
1:15 PM,33.3,25.5,73,29.75,10.0,West,17.3,25.3,N/A,Snow,Light Snow,280,2012-11-23 18:15:00
1:34 PM,33.4,24.4,70,29.76,10.0,WNW,20.7,29.9,N/A,Snow,Light Snow,290,2012-11-23 18:34:00
1:55 PM,33.8,25.0,70,29.77,10.0,West,19.6,28.8,N/A,Snow,Light Snow,280,2012-11-23 18:55:00
2:15 PM,33.1,26.1,75,29.78,1.2,WNW,18.4,25.3,N/A,Snow,Light Snow,300,2012-11-23 19:15:00
2:34 PM,32.0,27.5,83,29.79,0.2,WNW,15.0,-,N/A,Snow,Light Snow,290,2012-11-23 19:34:00
2:55 PM,32.0,26.4,80,29.80,0.5,NW,16.1,20.7,N/A,Snow,Light Snow,310,2012-11-23 19:55:00
3:14 PM,32.4,25.2,75,29.80,5.0,WNW,19.6,32.2,N/A,Snow,Light Snow,300,2012-11-23 20:14:00
3:34 PM,32.9,24.6,72,29.82,1.5,NW,17.3,27.6,N/A,Snow,Light Snow,310,2012-11-23 20:34:00
3:55 PM,33.3,24.3,70,29.83,10.0,WNW,18.4,28.8,N/A,,Overcast,300,2012-11-23 20:55:00
4:14 PM,33.1,22.8,66,29.83,10.0,WNW,20.7,27.6,N/A,,Overcast,300,2012-11-23 21:14:00
4:34 PM,33.6,21.4,61,29.85,10.0,NW,19.6,27.6,N/A,,Overcast,310,2012-11-23 21:34:00
4:55 PM,33.8,20.5,58,29.86,10.0,NW,25.3,29.9,N/A,,Overcast,310,2012-11-23 21:55:00
5:14 PM,33.6,20.7,59,29.87,10.0,NW,25.3,35.7,N/A,,Overcast,310,2012-11-23 22:14:00
5:34 PM,33.4,20.7,59,29.89,10.0,NW,23.0,42.6,N/A,,Overcast,310,2012-11-23 22:34:00
5:55 PM,33.3,20.5,59,29.90,10.0,NW,17.3,29.9,N/A,,Overcast,320,2012-11-23 22:55:00
6:14 PM,33.4,20.1,58,29.91,10.0,NW,26.5,34.5,N/A,,Overcast,320,2012-11-23 23:14:00
6:34 PM,33.3,19.9,58,29.92,10.0,NW,26.5,34.5,N/A,,Overcast,320,2012-11-23 23:34:00
6:55 PM,33.1,19.6,58,29.93,10.0,NW,24.2,35.7,N/A,,Overcast,320,2012-11-23 23:55:00
7:14 PM,33.1,20.1,59,29.94,10.0,NW,21.9,28.8,N/A,,Overcast,320,2012-11-24 00:14:00
7:34 PM,32.9,19.8,59,29.95,10.0,NW,21.9,31.1,N/A,,Overcast,310,2012-11-24 00:34:00
7:54 PM,32.5,19.0,58,29.96,10.0,NW,25.3,33.4,N/A,,Overcast,320,2012-11-24 00:54:00
8:14 PM,32.4,19.9,60,29.96,10.0,NW,19.6,27.6,N/A,,Overcast,310,2012-11-24 01:14:00
8:35 PM,32.0,20.1,62,29.97,10.0,NW,21.9,27.6,N/A,,Overcast,310,2012-11-24 01:35:00
8:54 PM,32.0,20.1,62,29.97,10.0,NW,20.7,33.4,N/A,,Overcast,310,2012-11-24 01:54:00
9:14 PM,32.0,20.1,62,29.98,10.0,NW,17.3,26.5,N/A,,Overcast,310,2012-11-24 02:14:00
9:35 PM,32.0,20.1,62,29.98,10.0,NW,17.3,24.2,N/A,,Overcast,310,2012-11-24 02:35:00
9:54 PM,32.0,20.3,62,29.99,10.0,NW,16.1,24.2,N/A,,Overcast,320,2012-11-24 02:54:00
10:14 PM,32.0,20.3,62,29.99,10.0,NW,16.1,26.5,N/A,,Overcast,320,2012-11-24 03:14:00
10:35 PM,32.0,20.1,62,29.99,10.0,NW,16.1,19.6,N/A,,Overcast,320,2012-11-24 03:35:00
10:54 PM,32.0,20.1,62,29.99,10.0,NW,17.3,24.2,N/A,,Overcast,310,2012-11-24 03:54:00
11:14 PM,32.0,19.9,61,30.00,10.0,NW,11.5,29.9,N/A,,Overcast,320,2012-11-24 04:14:00
11:35 PM,32.0,18.7,58,30.00,10.0,NW,17.3,21.9,N/A,,Overcast,320,2012-11-24 04:35:00
11:54 PM,32.0,18.5,58,30.00,10.0,NW,18.4,26.5,N/A,,Overcast,320,2012-11-24 04:54:00